Lid_Strength_Index
11 13 14 12 12 13 13 15 15 14 12 14 14 13 12 13 13 14 13 13 14 13 13 12 11 11 12 12 10 10 11 11 10 11 12 12 14 14 14 14 13 13 14 14
13 14 11 10 12 13 14 15 15 14 12 13 14 14 13 13 13 12 12 13 13 14 13 13 12 12 12 11 10 10 11 11 11 11 12 13 15 15 15 14 15 15 15 15
13 12 10 11 12 13 14 15 15 14 13 14 15 15 14 13 13 12 11 11 12 13 14 14 13 13 13 11 11 11 11 11 12 13 14 15 15 15 15 15 15 15 15 16
13 11 11 13 13 12 15 12 13 13 16 17 15 18 15 14 13 13 11 12 13 13 13 13 13 14 13 11 11 11 11 13 13 14 14 15 15 16 16 16 16 16 16 16
13 13 13 13 13 12 14 13 14 15 16 17 17 18 17 15 15 13 11 12 14 14 13 14 14 13 13 11 12 12 13 13 13 14 14 15 16 16 16 16 16 17 17 16
13 13 12 12 12 12 12 14 15 16 17 19 17 17 15 15 13 13 13 14 14 14 14 14 14 14 13 12 13 13 13 14 13 14 15 16 17 17 17 17 17 17 17 17
14 14 13 13 14 14 14 15 19 21 21 19 17 17 14 13 12 12 12 15 15 14 14 15 15 15 14 13 13 13 13 14 14 14 15 15 16 16 17 17 17 17 18 18
17 17 14 13 13 14 15 15 18 23 22 20 17 19 16 13 13 13 13 15 15 15 14 15 15 15 15 14 14 14 14 15 14 14 15 15 16 17 17 17 17 17 17 18
17 16 14 13 13 12 16 16 13 17 22 21 18 16 13 13 14 15 16 16 16 15 15 16 16 16 16 15 15 14 15 15 15 15 15 15 16 17 17 17 17 17 18 18
13 16 15 14 12 13 14 13 17 16 22 22 19 18 16 14 14 15 16 17 17 17 17 17 16 16 15 15 16 15 15 15 15 15 15 16 17 17 17 17 18 18 18 18
12 13 15 14 15 15 15 16 15 14 16 21 23 18 14 14 14 14 16 16 16 17 17 17 17 16 16 15 15 15 15 15 15 15 16 17 17 17 17 18 18 18 18 19
11 12 17 15 14 13 12 13 13 17 19 18 19 16 14 14 14 14 15 15 16 17 17 17 17 17 17 17 15 15 15 15 15 16 17 17 18 18 18 19 19 19 19 19
10 14 18 17 14 13 14 13 12 12 14 17 19 17 15 14 15 15 16 16 17 18 18 18 18 17 18 17 16 16 16 16 16 17 17 18 19 19 19 19 19 19 19 20
8 13 16 18 16 14 16 15 13 13 17 17 16 14 13 15 15 15 16 16 17 17 18 18 17 17 17 17 17 16 16 16 17 17 18 19 19 19 19 19 19 19 19 20
10 15 13 13 12 14 15 15 14 14 13 16 14 14 12 12 12 12 14 15 17 17 17 18 18 17 17 17 17 16 16 16 17 18 18 19 19 19 19 19 19 19 19 19
10 15 13 15 13 13 14 13 13 12 12 13 12 13 9 11 13 13 14 14 15 16 17 17 17 17 17 17 16 16 16 16 16 17 18 18 18 19 19 18 19 19 19 19
12 14 15 17 13 14 17 14 13 12 11 11 14 11 9 11 10 10 13 13 14 14 15 16 17 17 16 16 16 16 16 16 16 17 17 18 18 18 18 18 19 19 19 19
13 13 14 16 15 21 14 15 11 11 11 10 10 10 10 10 9 9 10 12 13 13 14 15 15 16 16 15 15 15 16 16 16 17 17 18 18 18 18 19 19 19 19 19
13 14 15 17 18 16 15 16 14 13 13 10 10 9 9 10 14 12 10 10 11 12 12 13 14 15 15 15 15 15 16 16 16 16 17 17 17 17 18 18 19 19 19 19
13 13 14 16 19 20 16 16 14 13 16 15 11 10 10 14 15 11 11 11 12 12 12 13 14 14 15 15 15 15 16 15 15 15 15 16 16 17 18 18 18 18 18 19
17 16 17 16 17 16 14 15 14 18 15 16 13 13 14 13 11 13 13 13 13 13 12 12 13 14 14 14 14 15 15 15 14 14 15 16 17 17 17 17 18 19 19 20
17 17 17 16 17 18 14 15 14 14 16 16 14 13 13 13 15 15 14 14 14 14 14 13 14 15 15 14 14 15 15 14 14 15 16 16 16 16 17 17 18 19 19 20
16 14 16 14 15 14 14 14 15 15 15 16 14 13 12 14 15 15 15 16 15 15 15 16 16 16 16 14 13 14 14 14 15 15 16 16 16 16 17 17 18 20 20 21
16 14 14 14 13 13 13 13 14 14 14 14 14 13 13 13 14 15 15 15 15 15 16 17 16 17 17 17 15 14 16 15 16 16 16 16 16 17 17 17 18 19 21 21
14 14 16 15 13 14 13 13 12 13 14 14 14 14 14 14 15 15 15 15 14 15 16 16 16 16 17 17 17 17 16 16 16 16 17 17 16 18 19 17 19 18 18 18
14 14 14 15 11 11 11 12 12 13 14 14 14 16 15 14 14 15 15 15 15 16 17 17 18 18 18 18 18 19 17 15 15 17 18 17 17 18 18 19 23 15 16 14